Regional Weather Roundup
Issued by NWS

Home | Current Version | Previous Version | Text Only | Print | Product List | Glossary On
Versions: 1 2 3 4 5 6 7 8 9 10 11 12 13 14 15 16 17 18 19 20 21 22 23 24 25 26 27 28 29 30 31 32 33 34 35 36 37 38 39 40 41 42 43 44 45 46 47 48 49 50
000
ASUS44 KLIX 270611
RWRLA
LOUISIANA WEATHER ROUNDUP
NATIONAL WEATHER SERVICE NEW ORLEANS LA
100 AM CDT WED JUL 27 2016

NOTE: "FAIR" INDICATES FEW OR NO CLOUDS BELOW 12,000 FEET WITH NO
      SIGNIFICANT WEATHER AND/OR OBSTRUCTIONS TO VISIBILITY.
      SKY/WX - SKY CONDITION AND SIGNIFICANT WEATHER.
      TMP - AIR TEMPERATURE.    DP   - DEWPOINT TEMPERATURE.
      RH  - RELATIVE HUMIDITY.  PRES - PRESSURE.
      HX  - HEAT INDEX.         WCI  - WIND CHILL INDEX.

*  THESE STATIONS ARE NOT NWS OR FAA STATIONS AND ARE NOT UNDER
   NWS QUALITY CONTROL.

LAZ040-048-061>063-065-066-069-270700-
SOUTHEAST LOUISIANA

CITY           SKY/WX    TMP DP  RH WIND       PRES   REMARKS
N.O. AUDUBON     N/A     81  73  76 MISG        N/A
6HR MIN TEMP:  78; 6HR MAX TEMP:  82;

N.O. INTL ARPT CLOUDY    80  74  81 S8        29.99S
6HR MIN TEMP:  79; 6HR MAX TEMP:  80; 6HR PCP: TRACE;

N.O. LAKEFRONT CLOUDY    79  72  79 S9        30.00F
6HR MIN TEMP:  78; 6HR MAX TEMP:  80; 6HR PCP: TRACE;

N.O. DOWNTOWN* MOCLDY    79  73  82 S6        30.00F
6HR MIN TEMP:  78; 6HR MAX TEMP:  80;

RESERVE*       CLOUDY    80  75  84 S8G17     29.98F
6HR MIN TEMP:  79; 6HR MAX TEMP:  81;

SLIDELL        PTCLDY    80  73  79 S5        29.99F
6HR MIN TEMP:  77; 6HR MAX TEMP:  81; 6HR PCP: TRACE;

BATON ROUGE    CLOUDY    78  73  84 SW12      29.96S
6HR MIN TEMP:  78; 6HR MAX TEMP:  79; 6HR PCP:  0.01;

BOOTHVILLE     CLOUDY    81  74  79 S7        30.02F
6HR MIN TEMP:  81; 6HR MAX TEMP:  82;

BELLE CHASSE   CLOUDY    78  75  90 S7        30.00S
6HR MIN TEMP:  76; 6HR MAX TEMP:  79;

BOGALUSA*      CLOUDY    78  74  86 S5        30.00F
6HR MIN TEMP:  78; 6HR MAX TEMP:  79;

GALLIANO*      PTCLDY    80  74  82 S7        30.00F
6HR MIN TEMP:  78; 6HR MAX TEMP:  81;

NEW ROADS*     FAIR      77  75  95 S7        29.95S
6HR MIN TEMP:  75; 6HR MAX TEMP:  77; 6HR PCP:  0.02;

GONZALES*      RAIN      77  76  96 CALM      29.97S
6HR MIN TEMP:  77; 6HR MAX TEMP:  78; 6HR PCP:  0.02;

HAMMOND*       DRIZZLE   77  72  83 S6        29.98F
HOUMA*         PTCLDY    78  74  88 S6        29.99F
6HR MIN TEMP:  76; 6HR MAX TEMP:  78;

PORT FOURCHON* CLEAR     82  73  74 S9G15     30.00F

$$

LAZ041-044-053-054-270700-
SOUTHWEST LOUISIANA

CITY           SKY/WX    TMP DP  RH WIND       PRES   REMARKS
LAKE CHARLES   CLOUDY    80  76  87 SW6       29.94S
6HR MIN TEMP:  79; 6HR MAX TEMP:  85;

LAFAYETTE      LGT RAIN  79  76  90 SW9       29.96R
6HR MIN TEMP:  77; 6HR MAX TEMP:  84; 6HR PCP:  0.03;

PATTERSON      LGT RAIN  76  73  91 W10       29.98S
6HR MIN TEMP:  76; 6HR MAX TEMP:  80;

SALT POINT       N/A     83  75  77 SW8       29.95F
6HR MIN TEMP:  81; 6HR MAX TEMP:  84;

NEW IBERIA     CLOUDY    77  74  90 SW6       29.97R
6HR MIN TEMP:  76; 6HR MAX TEMP:  83; 6HR PCP:  0.04;

CHENAULT AIRPK CLOUDY    80  76  87 SW6       29.94S
6HR MIN TEMP:  80; 6HR MAX TEMP:  86;


$$

LAZ027-028-270700-
CENTRAL LOUISIANA

CITY           SKY/WX    TMP DP  RH WIND       PRES   REMARKS
FORT POLK      PTCLDY    75  74  95 S7        29.93S
6HR MIN TEMP:  75; 6HR MAX TEMP:  89; 6HR PCP:  0.05;

ALEXANDRIA INT MOCLDY    73  73 100 SE3       29.92S
6HR MIN TEMP:  73; 6HR MAX TEMP:  75; 6HR PCP:  0.01;

ALEXANDRIA     CLOUDY    74  74 100 CALM      29.94S
6HR MIN TEMP:  74; 6HR MAX TEMP:  77; 6HR PCP: TRACE;


$$

LAZ001-002-270700-
NORTHWEST LOUISIANA

CITY           SKY/WX    TMP DP  RH WIND       PRES   REMARKS
SHREVEPORT     PTCLDY    78  74  87 SE5       29.92S
6HR MIN TEMP:  77; 6HR MAX TEMP:  91;

BARKSDALE AFB  CLEAR     75  74  96 SE5       29.92S
6HR MIN TEMP:  75; 6HR MAX TEMP:  91;

DTN SHREVEPORT CLEAR     79  72  79 S3        29.92S
6HR MIN TEMP:  79; 6HR MAX TEMP:  94;


$$

LAZ014-016-270700-
NORTHEAST LOUISIANA

CITY           SKY/WX    TMP DP  RH WIND       PRES   REMARKS
MONROE         CLOUDY    76  75  97 CALM      29.94S
6HR MIN TEMP:  75; 6HR MAX TEMP:  80; 6HR PCP: TRACE;

TALLULAH       CLOUDY    78  75  90 SE6       29.94S
6HR MIN TEMP:  77; 6HR MAX TEMP:  79; 6HR PCP: TRACE;


$$




USA.gov is the U.S. government's official web portal to all federal, state and local government web resources and services.